Weather History for Manitowoc, WI

Change the Weather History Date:

Wednesday, April 10, 2013

  Actual Average Record
Temperature  
Mean Temperature 34 °F -  
Max Temperature 37 °F 50 °F 82 °F (1977)
Min Temperature 32 °F 30 °F 18 °F (1989)
Degree Days  
Heating Degree Days 30    
Moisture  
Dew Point 29 °F    
Average Humidity 82    
Maximum Humidity 93    
Minimum Humidity 65    
Precipitation  
Precipitation 0.97 in - - ()
Sea Level Pressure  
Sea Level Pressure 30.05 in    
Wind  
Wind Speed 13 mph (NNE)    
Max Wind Speed 16 mph    
Max Gust Speed 29 mph    
Visibility 9 miles    
Events Thunderstorm    
Averages and records for this station are not official NWS values.
T = Trace of Precipitation, MM = Missing Value Source: NWS Daily Summary

Daily Weather History Graph

Daily Weather History Graph

Search for Another Location

Airport:

Trip Planner

Search our weather history database for the weather conditions in past years. The results will help you decide how hot, cold, wet, or windy it might be!

Date:

Astronomy

Apr. 10, 2013 Rise Set
Actual Time 6:15 AM CDT 7:29 PM CDT
Civil Twilight 5:45 AM CDT 7:58 PM CDT
Nautical Twilight 5:10 AM CDT 8:34 PM CDT
Astronomical Twilight 4:32 AM CDT 9:12 PM CDT
Moon 6:10 AM CDT (4/10) 8:06 PM CDT (4/10)
Length of Visible Light 14h 13m
Length of Day
13h 13m
New Moon, 0% of the Moon is Illuminated
Apr 10
New Moon
Apr 18
First Quarter
Apr 25
Full
May 2
Last Quarter
May 9
New

Hourly Weather History & Observations

Time (CDT) Temp. Windchill Dew Point Humidity Pressure Visibility Wind Dir Wind Speed Gust Speed Precip Events Conditions
12:15 AM 32.0 °F 22.1 °F 26.6 °F 80% 30.06 in 10.0 mi North 13.8 mph 28.8 mph 0.03 in Thunderstorm Mostly Cloudy
12:35 AM 32.0 °F 22.5 °F 28.4 °F 87% 30.08 in 10.0 mi North 12.7 mph 25.3 mph 0.03 in   Overcast
12:55 AM 32.0 °F 23.0 °F 28.4 °F 87% 30.15 in 10.0 mi NNW 11.5 mph 21.9 mph 0.04 in Thunderstorm Thunderstorm
1:15 AM 32.0 °F 22.1 °F 28.4 °F 87% 30.07 in 4.0 mi NNE 13.8 mph 21.9 mph 0.09 in Thunderstorm Overcast
1:35 AM 32.0 °F 25.6 °F 28.4 °F 87% 30.12 in 5.0 mi NNE 6.9 mph 18.4 mph 0.15 in Thunderstorm Overcast
1:55 AM 32.0 °F 22.5 °F 28.4 °F 87% 30.11 in 4.0 mi North 12.7 mph - 0.22 in Thunderstorm Thunderstorm
2:15 AM 32.0 °F 23.6 °F 28.4 °F 87% 30.09 in 4.0 mi North 10.4 mph 19.6 mph 0.08 in Thunderstorm Overcast
2:35 AM 32.0 °F 22.5 °F 28.4 °F 87% 30.11 in 4.0 mi North 12.7 mph 18.4 mph 0.17 in   Overcast
2:55 AM 32.0 °F 21.6 °F 28.4 °F 87% 30.04 in 4.0 mi North 15.0 mph 20.7 mph 0.26 in   Overcast
3:15 AM 32.0 °F 22.5 °F 28.4 °F 87% 30.07 in 5.0 mi North 12.7 mph 20.7 mph 0.07 in   Overcast
3:35 AM 32.0 °F 22.1 °F 28.4 °F 87% 30.03 in 5.0 mi North 13.8 mph 26.5 mph 0.12 in   Overcast
3:55 AM 32.0 °F 23.6 °F 28.4 °F 87% 30.06 in 7.0 mi NNE 10.4 mph 17.3 mph 0.16 in   Overcast
4:15 AM 32.0 °F 23.0 °F 28.4 °F 87% 30.02 in 7.0 mi NNE 11.5 mph 21.9 mph 0.06 in   Overcast
4:35 AM 32.0 °F 21.2 °F 30.2 °F 93% 30.03 in 10.0 mi NNE 16.1 mph 20.7 mph 0.07 in   Overcast
4:55 AM 33.8 °F 24.3 °F 28.4 °F 81% 30.04 in 10.0 mi North 13.8 mph 23.0 mph 0.07 in   Overcast
5:15 AM 33.8 °F 26.4 °F 30.2 °F 87% 30.10 in 7.0 mi North 9.2 mph 20.7 mph 0.04 in   Overcast
5:35 AM 33.8 °F 27.0 °F 30.2 °F 87% 30.07 in 3.0 mi North 8.1 mph 19.6 mph 0.16 in   Overcast
5:55 AM 32.0 °F 23.0 °F 30.2 °F 93% 30.03 in 4.0 mi NNE 11.5 mph 20.7 mph 0.21 in   Overcast
6:15 AM 33.8 °F 23.9 °F 30.2 °F 87% 30.02 in 10.0 mi NE 15.0 mph 23.0 mph 0.01 in   Overcast
6:35 AM 33.8 °F 25.8 °F 30.2 °F 87% 30.05 in 10.0 mi NNE 10.4 mph 16.1 mph 0.01 in   Overcast
6:55 AM 33.8 °F 26.4 °F 30.2 °F 87% 30.07 in 10.0 mi NNE 9.2 mph - 0.01 in   Overcast
7:15 AM 33.8 °F 26.4 °F 30.2 °F 87% 30.05 in 10.0 mi NNE 9.2 mph 18.4 mph N/A   Overcast
7:35 AM 33.8 °F 25.8 °F 30.2 °F 87% 30.05 in 10.0 mi NNE 10.4 mph 17.3 mph N/A   Overcast
7:55 AM 33.8 °F 24.8 °F 30.2 °F 87% 30.03 in 10.0 mi North 12.7 mph 21.9 mph N/A   Overcast
8:15 AM 33.8 °F 25.3 °F 30.2 °F 87% 30.04 in 9.0 mi North 11.5 mph 17.3 mph N/A   Overcast
8:35 AM 33.8 °F 26.4 °F 30.2 °F 87% 30.03 in 10.0 mi North 9.2 mph 19.6 mph N/A   Overcast
8:55 AM 33.8 °F 24.3 °F 30.2 °F 87% 30.02 in 10.0 mi NNE 13.8 mph 20.7 mph N/A   Overcast
9:15 AM 33.8 °F 24.8 °F 30.2 °F 87% 30.02 in 10.0 mi NNE 12.7 mph 18.4 mph N/A   Overcast
9:35 AM 33.8 °F 23.5 °F 30.2 °F 87% 29.97 in 7.0 mi NE 16.1 mph 21.9 mph N/A   Overcast
9:55 AM 33.8 °F 23.5 °F 30.2 °F 87% 30.05 in 5.0 mi North 16.1 mph - N/A   Overcast
10:15 AM 33.8 °F 25.3 °F 30.2 °F 87% 30.06 in 7.0 mi North 11.5 mph 20.7 mph N/A   Overcast
10:35 AM 33.8 °F 23.5 °F 30.2 °F 87% 30.08 in 6.0 mi North 16.1 mph 24.2 mph N/A   Overcast
10:55 AM 33.8 °F 24.3 °F 30.2 °F 87% 30.06 in 5.0 mi NNE 13.8 mph 24.2 mph N/A   Overcast
11:15 AM 35.6 °F 27.1 °F 32.0 °F 87% 30.05 in 8.0 mi NNE 12.7 mph 20.7 mph N/A   Overcast
11:35 AM 35.6 °F 26.2 °F 32.0 °F 87% 30.05 in 10.0 mi NNE 15.0 mph 26.5 mph N/A   Overcast
12:15 PM 35.6 °F 26.2 °F 32.0 °F 87% 30.08 in 10.0 mi NNE 15.0 mph 20.7 mph N/A   Overcast
12:35 PM 35.6 °F 27.5 °F 30.2 °F 81% 30.09 in 10.0 mi NNE 11.5 mph 24.2 mph N/A   Overcast
1:15 PM 35.6 °F 26.6 °F 30.2 °F 81% 30.06 in 10.0 mi NNE 13.8 mph 19.6 mph N/A   Overcast
1:35 PM 35.6 °F 26.2 °F 30.2 °F 81% 30.03 in 10.0 mi NNE 15.0 mph 26.5 mph N/A   Overcast
2:15 PM 35.6 °F 27.1 °F 30.2 °F 81% 30.06 in 10.0 mi NNE 12.7 mph 23.0 mph N/A   Overcast
2:35 PM 35.6 °F 27.1 °F 30.2 °F 81% 30.06 in 10.0 mi NNE 12.7 mph 23.0 mph N/A   Overcast
2:55 PM 35.6 °F 26.6 °F 30.2 °F 81% 30.05 in 10.0 mi NNE 13.8 mph 26.5 mph N/A   Overcast
3:15 PM 35.6 °F 29.2 °F 30.2 °F 81% 30.07 in 10.0 mi NNE 8.1 mph 21.9 mph N/A   Overcast
3:35 PM 35.6 °F 26.2 °F 32.0 °F 87% 30.06 in 10.0 mi NNE 15.0 mph 23.0 mph N/A   Overcast
3:55 PM 35.6 °F 26.2 °F 30.2 °F 81% 30.07 in 10.0 mi NNE 15.0 mph 23.0 mph N/A   Overcast
4:15 PM 35.6 °F 27.5 °F 30.2 °F 81% 30.08 in 10.0 mi NNE 11.5 mph 17.3 mph N/A   Overcast
4:35 PM 35.6 °F 26.6 °F 30.2 °F 81% 30.08 in 10.0 mi NNE 13.8 mph 17.3 mph N/A   Overcast
4:55 PM 35.6 °F 27.1 °F 30.2 °F 81% 30.07 in 10.0 mi NNE 12.7 mph 18.4 mph N/A   Overcast
5:15 PM 35.6 °F 26.2 °F 30.2 °F 81% 30.05 in 10.0 mi NNE 15.0 mph 21.9 mph N/A   Overcast
5:35 PM 35.6 °F 26.2 °F 30.2 °F 81% 30.03 in 10.0 mi NNE 15.0 mph 20.7 mph N/A   Overcast
5:55 PM 35.6 °F 27.1 °F 30.2 °F 81% 30.03 in 10.0 mi NNE 12.7 mph 20.7 mph N/A   Overcast
6:15 PM 35.6 °F 26.2 °F 30.2 °F 81% 30.01 in 10.0 mi NNE 15.0 mph 23.0 mph N/A   Overcast
6:35 PM 37.4 °F 28.5 °F 28.4 °F 70% 30.01 in 10.0 mi NNE 15.0 mph 23.0 mph N/A   Overcast
6:55 PM 37.4 °F 28.5 °F 28.4 °F 70% 30.00 in 10.0 mi NNE 15.0 mph 21.9 mph N/A   Overcast
7:15 PM 37.4 °F 28.9 °F 28.4 °F 70% 30.01 in 10.0 mi NNE 13.8 mph 23.0 mph N/A   Overcast
7:35 PM 37.4 °F 30.3 °F 28.4 °F 70% 30.04 in 10.0 mi NE 10.4 mph 19.6 mph N/A   Overcast
7:55 PM 37.4 °F 29.8 °F 28.4 °F 70% 30.02 in 10.0 mi NNE 11.5 mph 20.7 mph N/A   Overcast
8:15 PM 37.4 °F 28.5 °F 28.4 °F 70% 30.02 in 10.0 mi NNE 15.0 mph 24.2 mph N/A   Overcast
8:35 PM 37.4 °F 28.9 °F 28.4 °F 70% 30.01 in 10.0 mi NNE 13.8 mph 24.2 mph N/A   Overcast
8:55 PM 37.4 °F 29.8 °F 28.4 °F 70% 30.03 in 10.0 mi NNE 11.5 mph 19.6 mph N/A   Overcast
9:15 PM 37.4 °F 29.3 °F 28.4 °F 70% 30.05 in 10.0 mi NNE 12.7 mph 18.4 mph N/A   Overcast
9:35 PM 37.4 °F 30.3 °F 28.4 °F 70% 30.06 in 10.0 mi NNE 10.4 mph 19.6 mph N/A   Overcast
9:55 PM 37.4 °F 28.9 °F 30.2 °F 75% 30.05 in 10.0 mi NNE 13.8 mph 18.4 mph N/A   Overcast
10:15 PM 37.4 °F 29.3 °F 30.2 °F 75% 30.05 in 10.0 mi NNE 12.7 mph 18.4 mph N/A   Overcast
10:35 PM 37.4 °F 29.8 °F 30.2 °F 75% 30.03 in 10.0 mi NNE 11.5 mph 18.4 mph N/A   Overcast
10:55 PM 37.4 °F 28.9 °F 28.4 °F 70% 30.04 in 10.0 mi NNE 13.8 mph 20.7 mph N/A   Overcast
11:15 PM 37.4 °F 29.3 °F 28.4 °F 70% 30.02 in 10.0 mi NNE 12.7 mph 21.9 mph N/A   Overcast
11:35 PM 37.4 °F 29.3 °F 26.6 °F 65% 30.02 in 10.0 mi NE 12.7 mph 18.4 mph N/A   Overcast
11:55 PM 35.6 °F 25.9 °F 26.6 °F 70% 30.01 in 10.0 mi NE 16.1 mph 21.9 mph N/A   Overcast